Terminal Aerodrome Forecast
Issued by NWS

Home | Current Version | Previous Version | Text Only | Print | Product List | Glossary On
Versions: 1 2 3 4 5 6 7 8 9 10 11 12 13
000
FTUS45 KMSO 171130
TAFSMN
TAF
KSMN 171130Z 1712/1812 VRB03KT P6SM SKC
     FM172000 26011G18KT P6SM SCT200
     FM180000 23008KT P6SM SCT200
      AMD LTD TO CLD VIS AND WIND=

USA.gov is the U.S. government's official web portal to all federal, state and local government web resources and services.